Theta_e
313 315 323 338 335 329 335 337 337 336 338 333 338 343 347 347 351 350 353 352 348 349 350 349 346 342 336 335 335 328 325 327 333 331 326 325 325 326 328 328 329 330 333
312 317 322 327 329 328 329 331 332 332 330 335 339 341 348 347 350 351 351 353 353 353 351 346 346 341 340 339 336 335 335 334 333 326 321 317 318 322 324 324 328 327 330
313 312 316 322 326 327 328 330 331 330 331 337 342 344 349 346 347 346 348 349 353 352 351 345 344 343 340 339 339 339 336 329 328 326 320 312 311 314 320 323 326 325 325
312 311 311 316 322 326 330 329 330 331 332 336 339 345 347 345 348 348 349 348 350 350 350 346 344 342 341 338 337 341 335 327 324 322 324 320 317 316 311 315 322 322 319
310 310 311 310 312 323 327 326 328 333 337 336 342 349 344 341 337 339 343 343 344 346 346 346 343 341 339 337 333 337 331 327 323 320 319 317 316 316 312 308 311 312 315
309 311 310 310 316 320 325 327 328 331 338 344 343 341 338 336 335 335 340 339 341 342 345 345 342 339 337 334 331 331 328 326 324 323 320 316 312 309 311 308 308 308 309
308 309 310 318 318 320 325 329 332 330 339 342 339 339 339 338 337 334 336 337 335 335 340 340 338 335 333 330 328 325 325 325 322 322 320 318 315 316 311 309 307 306 307
309 316 317 319 325 328 328 332 334 334 335 336 336 335 338 338 336 334 333 332 330 330 334 335 332 333 332 329 326 324 324 323 324 322 321 320 320 316 313 310 306 304 303
315 320 321 327 327 326 325 327 327 326 328 328 325 325 327 326 326 327 328 327 326 330 331 329 330 330 331 329 326 324 322 323 321 320 319 318 318 317 316 313 310 307 303
320 321 322 322 322 322 320 320 321 321 321 321 320 321 322 323 323 323 324 321 321 322 324 325 327 329 328 328 326 323 322 321 321 321 320 320 321 320 319 317 314 310 310
318 319 317 315 317 317 315 314 314 316 317 318 317 317 317 318 318 317 317 318 321 322 321 322 322 323 324 324 325 325 326 324 322 321 321 321 320 319 319 317 316 313 311
316 316 314 312 312 311 311 311 311 311 312 314 313 313 313 313 313 313 313 315 315 318 320 321 320 321 321 320 321 320 319 320 322 322 321 321 325 319 319 319 316 315 314
313 312 311 310 310 310 310 310 310 309 309 310 309 310 309 310 310 311 312 312 313 313 313 315 315 317 315 313 313 313 315 314 314 316 316 317 317 317 318 318 318 319 319
308 308 307 307 308 309 308 309 308 309 309 308 307 307 306 306 306 308 309 310 312 310 310 310 311 312 312 312 313 312 308 307 309 310 310 310 309 309 310 311 313 315 315
307 307 306 306 307 306 307 308 307 308 307 307 305 304 306 305 305 305 305 306 306 307 308 308 308 308 308 310 305 305 303 302 304 305 307 308 310 314 312 310 307 307 307
307 307 308 307 307 307 307 307 306 306 305 305 304 305 304 303 301 301 301 302 302 302 303 303 304 303 308 301 302 302 299 299 300 300 302 304 308 308 309 309 310 308 305
307 307 306 306 305 305 306 304 305 305 304 303 304 304 302 301 300 300 300 298 297 297 297 298 299 299 299 300 298 300 296 296 297 298 299 300 303 304 304 305 306 306 306
305 305 305 304 303 303 303 303 303 303 302 301 301 301 300 299 298 297 295 295 293 293 293 293 294 294 296 298 297 298 295 295 295 296 296 296 297 299 301 301 301 302 303
303 302 303 302 301 301 301 301 300 299 299 298 298 298 297 295 294 292 290 291 290 290 291 292 292 291 292 295 294 295 294 295 296 296 296 297 296 297 296 298 298 299 300
303 302 302 301 299 298 298 298 295 294 294 295 295 295 293 291 290 288 288 288 289 290 292 292 292 294 293 294 295 295 296 294 294 295 296 298 297 295 295 296 297 297 298
301 300 298 297 296 297 296 292 292 290 292 293 292 291 289 288 288 288 289 290 290 291 291 291 292 293 294 295 295 295 295 295 294 295 296 297 296 294 294 294 297 296 298
297 297 296 294 293 294 292 289 288 290 290 289 288 288 288 289 290 289 289 289 289 289 289 289 291 293 295 295 295 294 294 295 294 295 297 297 295 294 294 294 294 294 295
294 295 293 291 290 290 289 287 287 288 288 286 287 288 288 289 289 288 287 288 289 288 288 289 289 291 294 295 295 294 293 294 295 297 296 295 293 293 294 294 294 294 295
293 292 290 288 287 288 288 286 287 287 286 286 287 288 287 288 287 289 289 288 288 288 288 289 289 291 292 293 295 295 295 295 295 295 294 294 293 293 294 294 295 295 294
290 289 287 286 285 286 286 286 286 287 287 287 287 287 287 287 288 289 289 289 291 290 289 290 290 290 291 293 293 293 293 294 293 293 292 291 291 291 293 294 296 298 299
287 286 285 284 284 285 285 285 287 288 286 285 286 287 287 288 288 288 289 292 291 291 291 291 291 293 293 292 292 291 291 290 290 291 290 290 291 291 293 295 296 299 301
Wind_Speed
8 5 7 16 11 8 12 20 20 21 9 3 3 4 9 5 5 7 10 10 11 12 10 8 5 5 6 5 4 2 1 2 1 3 3 3 4 3 4 2 3 2 3
7 5 7 9 12 11 11 17 23 17 8 4 4 5 7 9 4 4 7 9 11 11 10 7 6 6 5 5 4 5 3 3 4 4 2 3 5 3 2 3 0 3 4
12 8 6 8 11 13 17 18 17 16 12 10 4 4 5 5 3 3 3 6 10 10 9 8 6 6 5 6 6 7 8 4 3 5 5 2 4 2 3 2 2 3 2
8 5 7 9 13 16 16 15 12 11 8 7 4 9 9 10 9 6 6 6 9 8 8 7 7 6 5 6 6 4 3 4 5 1 1 1 4 3 4 3 4 3 4
9 8 8 7 13 17 19 15 15 14 15 10 10 11 11 5 2 3 6 6 5 7 6 8 7 6 4 4 6 5 8 4 4 4 3 1 1 2 3 4 4 3 4
8 7 6 1 4 10 16 17 19 12 7 12 9 11 8 6 3 2 4 3 3 4 6 7 6 6 6 7 6 6 7 5 4 4 4 4 4 4 3 2 4 4 5
8 7 5 7 2 7 8 8 9 7 6 9 8 7 7 5 4 1 4 5 3 1 5 5 6 5 5 4 5 6 6 5 4 6 4 4 5 3 4 4 4 4 4
8 11 9 6 7 9 9 10 9 10 8 9 5 3 6 4 4 3 3 3 2 2 3 4 4 6 6 7 6 3 4 5 5 7 6 4 4 4 4 5 5 2 3
11 11 8 12 14 13 11 11 13 11 10 10 9 9 9 10 7 8 8 4 6 5 6 5 6 4 6 7 6 4 5 5 5 6 6 5 5 5 5 4 4 5 4
16 13 13 14 12 14 12 13 13 13 10 11 9 7 7 6 6 6 7 7 6 7 8 8 7 4 3 2 3 4 5 5 5 5 7 6 5 5 4 5 5 5 6
12 14 13 12 13 13 13 12 13 12 11 10 8 9 6 6 6 7 6 6 6 7 7 7 6 5 5 6 5 5 6 6 6 5 6 7 6 5 5 4 5 5 5
14 15 14 13 12 11 12 12 12 13 9 8 9 8 8 7 7 7 5 5 6 5 6 7 6 5 6 5 6 4 5 5 6 6 6 8 6 6 7 7 7 7 6
16 13 13 13 13 13 14 11 10 9 7 8 7 7 8 8 8 8 7 7 5 3 3 3 4 5 6 6 5 4 4 5 5 4 4 5 5 5 6 7 8 7 7
16 15 14 13 12 11 10 9 8 7 7 8 8 8 8 7 8 7 8 8 7 7 6 5 5 5 5 5 6 4 4 4 4 5 5 5 5 6 5 4 5 5 5
16 15 14 12 9 8 7 7 6 7 6 7 7 5 4 5 6 7 7 7 7 7 7 8 8 7 6 5 5 4 4 4 4 3 4 5 7 10 9 5 6 5 3
15 13 12 10 8 8 7 6 6 6 7 7 5 5 6 5 6 7 7 7 7 8 7 8 7 7 6 5 6 5 5 5 5 6 5 5 9 9 12 10 8 6 4
11 10 8 8 7 7 7 8 7 5 7 6 5 7 7 8 7 6 6 6 6 5 6 7 7 6 6 8 2 6 4 5 5 6 7 9 9 9 9 13 15 14 14
12 11 10 7 7 6 8 7 7 7 8 9 10 9 8 7 6 6 6 7 4 5 6 7 6 8 8 9 9 12 11 9 9 9 9 9 11 11 11 12 12 11 10
10 9 10 9 8 8 7 8 10 10 11 10 9 9 9 9 9 9 9 8 9 10 9 9 10 11 11 15 16 12 7 8 9 8 9 10 11 12 13 11 13 14 13
11 12 10 10 9 6 8 11 9 9 9 8 7 6 6 7 8 6 8 7 6 9 9 11 10 13 12 14 13 12 6 8 7 9 9 13 12 13 15 10 10 11 11
13 11 13 13 10 9 10 11 9 9 6 7 7 8 7 8 6 8 8 9 9 10 10 10 10 11 11 11 12 14 7 7 8 7 7 7 13 13 14 12 9 11 10
11 12 13 12 11 11 9 8 8 5 6 7 8 8 7 8 8 9 8 9 9 9 9 10 9 7 9 12 12 14 14 12 8 9 7 8 12 11 12 10 13 16 14
11 10 11 10 9 8 8 7 5 7 8 6 7 9 9 8 7 8 8 8 7 7 8 7 8 8 7 8 10 11 13 12 8 6 9 14 11 12 12 16 18 16 10
11 9 10 9 8 7 6 4 5 6 6 8 8 7 8 9 8 6 6 6 7 7 7 8 8 8 9 9 8 6 6 9 8 10 9 12 16 19 18 16 13 9 9
8 8 8 6 5 4 4 4 5 6 7 7 7 7 6 7 8 7 6 7 9 8 8 9 8 9 10 11 12 10 8 7 8 9 7 8 8 9 9 9 11 10 10
6 7 5 4 4 5 5 5 6 7 7 7 6 6 7 7 7 7 9 10 15 21 19 19 15 10 14 22 20 18 15 13 12 5 7 9 8 9 11 11 11 11 13
Wind_Direction
162 179 124 182 176 184 172 181 176 189 218 133 167 142 246 217 211 204 209 203 209 213 212 221 161 161 151 191 206 103 141 301 281 30 293 290 345 66 110 161 210 309 301
152 180 147 142 167 170 180 184 182 190 201 185 188 171 257 242 190 200 196 198 207 204 199 185 198 163 147 188 184 177 180 210 177 165 102 340 336 359 227 214 204 309 310
257 156 165 183 165 170 187 210 204 195 207 201 174 224 233 267 233 200 209 210 211 199 193 186 179 187 164 183 198 192 205 168 234 224 140 98 230 309 319 316 241 313 304
227 173 189 181 188 199 186 206 207 212 220 166 198 222 232 232 239 231 224 211 205 198 194 171 183 197 176 188 196 204 243 146 181 156 232 132 143 168 321 308 308 316 310
197 220 236 210 213 195 192 191 197 214 225 214 218 218 217 235 286 225 240 216 213 197 184 176 176 182 187 206 191 159 212 205 142 146 147 165 152 106 135 250 294 315 289
199 197 245 276 329 168 188 181 199 213 189 198 197 195 206 212 225 261 235 215 205 203 185 185 184 182 187 186 197 192 197 186 153 163 161 168 172 184 157 179 256 252 287
175 134 132 110 5 87 135 138 156 168 171 168 176 175 147 145 119 249 231 184 141 235 215 191 193 186 191 202 204 180 185 178 178 178 191 192 206 165 160 156 220 222 277
175 128 127 128 88 68 69 83 88 80 59 67 53 23 52 68 66 65 40 19 339 270 267 227 228 205 182 188 206 182 184 183 201 206 211 192 215 190 184 180 152 256 271
122 122 134 104 95 85 76 85 82 71 64 60 55 47 45 38 54 55 55 40 3 344 276 259 241 221 196 189 188 190 202 191 203 217 216 207 237 207 211 192 166 171 206
120 113 96 96 93 91 93 79 81 86 84 77 71 71 71 58 46 56 48 45 29 18 24 23 12 13 341 297 216 223 238 201 226 224 219 218 234 234 223 214 204 189 201
115 109 104 88 89 83 80 80 71 67 59 60 62 57 51 61 60 49 40 38 20 12 16 13 11 339 331 338 348 317 297 277 262 254 245 252 242 247 249 242 231 215 184
123 113 105 100 93 90 80 75 69 67 61 51 45 40 35 29 34 27 19 29 26 9 354 350 359 6 347 13 312 319 308 297 276 265 266 265 270 252 251 245 233 230 219
113 109 101 98 95 83 73 69 67 72 69 66 52 36 26 10 10 2 354 355 351 347 335 325 311 309 309 320 318 291 292 301 315 329 330 312 320 290 274 259 263 262 257
105 101 93 86 83 85 91 85 70 69 63 52 40 28 15 1 0 348 350 339 338 329 323 309 299 294 295 292 283 321 354 337 322 311 302 296 286 269 269 281 272 267 264
107 107 107 106 108 99 91 87 85 77 77 67 49 23 8 3 6 9 9 6 12 359 356 1 358 359 349 348 3 1 355 335 316 297 288 277 278 278 268 257 260 264 260
115 117 115 121 117 113 109 99 85 69 62 51 36 24 21 26 25 21 21 28 18 12 10 6 1 1 353 21 12 14 351 332 332 316 295 283 287 274 273 274 248 229 255
113 115 102 97 98 90 84 73 69 58 54 44 28 35 36 40 33 24 17 8 1 352 353 350 345 321 316 321 333 348 338 314 283 280 280 284 284 289 282 277 271 259 238
105 104 103 91 81 77 65 68 52 42 37 36 42 40 34 29 13 14 8 355 348 336 314 306 297 301 301 306 286 287 294 280 267 258 264 261 273 271 273 276 278 276 273
91 85 86 82 71 64 60 59 45 46 44 36 31 25 20 8 358 351 341 329 325 320 315 312 309 302 298 296 293 292 290 286 285 291 287 286 287 286 283 282 279 276 275
97 97 89 82 73 50 63 69 56 48 37 20 10 16 11 351 327 316 324 316 317 317 316 310 304 300 298 294 292 294 295 289 287 284 278 272 264 267 270 268 269 273 275
83 77 68 65 46 45 62 59 46 36 6 357 352 351 347 334 333 335 327 323 316 309 304 299 298 293 284 281 277 282 287 281 282 277 279 274 262 253 262 260 264 262 274
69 71 74 64 48 44 55 54 42 359 354 351 344 341 337 336 333 324 318 313 307 305 308 307 301 294 299 289 273 262 261 274 285 288 275 288 292 282 269 270 261 255 261
70 72 84 75 54 50 48 43 6 356 346 339 335 342 335 328 321 316 311 317 309 301 302 298 296 297 294 289 284 279 278 282 291 284 290 293 290 289 280 265 261 263 261
61 69 71 63 47 31 35 31 353 341 340 341 335 330 328 326 319 313 308 305 303 301 290 292 293 297 295 289 284 274 271 273 277 290 292 294 290 276 266 274 272 256 245
71 68 69 64 38 3 10 349 344 341 340 335 329 325 316 321 322 314 303 298 287 268 282 289 288 292 294 288 288 285 286 281 281 298 284 279 276 279 274 268 260 256 249
68 68 68 57 13 359 348 339 345 341 335 327 322 319 327 322 314 311 312 282 262 278 286 275 263 284 269 282 286 285 282 272 271 274 277 281 278 276 275 270 271 259 252